PST,Max TemperatureF,Mean TemperatureF,Min TemperatureF,Max Dew PointF,MeanDew PointF,Min DewpointF,Max Humidity, Mean Humidity, Min Humidity, Max Sea Level PressureIn, Mean Sea Level PressureIn, Min Sea Level PressureIn, Max VisibilityMiles, Mean VisibilityMiles, Min VisibilityMiles, Max Wind SpeedMPH, Mean Wind SpeedMPH, Max Gust SpeedMPH,PrecipitationIn, CloudCover, Events, WindDirDegrees
2012-1-1,62,52,41,48,45,41,100,75,55,30.21,30.15,30.11,20,18,15,9,5,,0.00,0,,180
2012-1-2,57,50,44,50,47,39,100,85,51,30.33,30.28,30.25,10,7,6,8,5,,0.00,5,,344
2012-1-3,53,50,42,50,49,43,100,94,82,30.37,30.29,30.04,7,3,0,13,5,,0.00,3,Fog,7
2012-1-4,66,52,37,50,46,37,100,76,46,30.41,30.33,30.29,15,8,5,9,5,,0.00,3,Fog,298
2012-1-5,64,52,39,52,44,36,100,69,44,30.32,30.22,30.18,10,10,10,12,6,,0.00,0,,340
2012-1-6,55,44,33,48,44,34,100,83,72,30.22,30.16,30.12,10,10,10,10,4,,0.00,2,,345
2012-1-7,66,54,42,45,36,28,93,46,29,30.24,30.17,30.12,20,20,20,17,9,23,0.00,2,,339
2012-1-8,69,54,39,32,29,23,70,38,17,30.23,30.19,30.02,10,10,10,9,7,,0.00,4,,307
2012-1-9,60,46,32,45,39,28,87,65,45,30.27,30.20,30.16,15,10,7,9,4,,0.00,0,,2
2012-1-10,60,46,33,46,42,32,93,73,48,30.18,30.13,30.08,15,8,5,12,6,,0.00,3,,344
2012-1-11,62,48,33,50,41,32,93,76,45,30.16,30.08,30.03,20,14,10,9,5,,0.00,1,,20
2012-1-12,66,49,32,46,38,32,100,63,32,30.13,30.09,30.05,20,20,20,10,6,,0.00,0,,357
2012-1-13,68,50,32,45,38,32,100,63,33,30.24,30.18,30.15,20,10,7,9,6,,0.00,1,,325
2012-1-14,64,48,32,45,39,32,100,70,39,30.21,30.14,30.10,20,14,7,12,3,,0.00,3,,345
2012-1-15,55,44,32,43,38,30,93,69,58,30.12,30.10,30.07,15,11,7,14,8,18,0.00,4,,275
2012-1-16,51,42,32,32,28,21,80,53,30,30.33,30.29,30.26,20,15,10,12,6,,0.00,0,,328
2012-1-17,53,40,26,36,32,25,93,64,44,30.44,30.39,30.35,,,,15,6,,0.00,3,,328
2012-1-18,55,42,30,41,37,28,93,74,58,30.43,30.37,30.30,20,20,20,9,4,,0.00,3,,29
2012-1-19,53,43,33,46,40,32,93,77,62,30.21,30.14,30.07,20,14,8,13,8,,0.00,8,Rain,146
2012-1-20,60,56,53,55,54,52,94,86,77,30.02,29.92,29.79,15,11,3,17,13,24,0.00,8,Rain,149
2012-1-21,55,50,42,46,43,39,93,73,58,30.17,30.06,29.88,15,12,6,17,13,25,0.00,5,,295
2012-1-22,55,50,44,48,45,41,87,80,72,30.16,30.05,29.92,15,11,6,18,12,29,0.00,7,Rain,155
2012-1-23,57,52,48,52,49,46,94,84,67,30.10,29.94,29.77,10,7,5,20,14,23,0.00,6,Rain,294
2012-1-24,57,52,46,50,47,45,93,81,72,30.40,30.34,30.30,15,11,10,8,3,,0.00,6,,1
2012-1-25,64,53,42,54,50,43,100,86,64,30.46,30.40,30.34,10,9,7,9,3,,0.00,4,,351
2012-1-26,60,56,51,57,55,52,100,94,82,30.36,30.30,30.25,15,7,0,15,6,,0.00,7,Fog,349
2012-1-27,66,57,46,52,40,30,100,63,26,30.29,30.25,30.21,10,2,0,12,5,,0.00,1,Fog,325
2012-1-28,64,50,35,39,33,30,81,48,28,30.35,30.29,30.24,,,,10,4,,0.00,1,,347
2012-1-29,62,50,37,50,45,36,93,75,55,30.28,30.21,30.13,20,10,6,9,6,,0.00,6,,180
2012-1-30,57,50,44,52,48,43,100,85,72,30.10,30.06,30.02,15,10,6,15,7,,0.00,6,,345
2012-1-31,57,54,50,50,48,45,94,82,72,30.21,30.14,30.11,15,11,7,12,8,,0.00,7,,344